[Iaude] MPEC J285: 2024 JE15 [a=0.83,e=0.33,i=0.9,H=26.8]

mpec at cfa.harvard.edu mpec at cfa.harvard.edu
Sun May 12 18:28:16 EDT 2024


M.P.E.C. 2024-J285                                 Issued 2024 May 12, 22:26 UT

     The Minor Planet Electronic Circulars contain information on unusual
         minor planets, routine data on comets and natural satellites,
         and occasional editorial announcements.  They are published
    on behalf of Division F of the International Astronomical Union by the
          Minor Planet Center, Smithsonian Astrophysical Observatory,
                          Cambridge, MA 02138, U.S.A.
			  
             Prepared using the Tamkin Foundation Computer Network

                              MPC at CFA.HARVARD.EDU
            URL https://www.minorplanetcenter.net/    ISSN 1523-6714

                                   2024 JE15                                    


Observations:
     K24J15E 1C2024 05 11.38812 15 32 44.26 +31 41 47.1          18.9 GVEJ285703
     K24J15E 1C2024 05 11.39039 15 32 35.69 +31 40 30.4          18.7 GVEJ285703
     K24J15E 1C2024 05 11.39266 15 32 27.28 +31 39 13.1          19.1 GVEJ285703
     K24J15E*1C2024 05 12.41673214 48 17.496+23 36 50.18         18.94GVEJ285703
     K24J15E 1C2024 05 12.41898114 48 12.791+23 35 56.29         19.24GVEJ285703
     K24J15E 1C2024 05 12.42123114 48 08.147+23 35 00.28               VEJ285703
     K24J15E 1C2024 05 12.42347914 48 03.654+23 34 07.54         19.42GVEJ285703
     K24J15E KC2024 05 12.44529414 47 19.907+23 25 16.61         19.17GVEJ285I52
     K24J15E KC2024 05 12.44587414 47 18.755+23 25 02.57         19.16GVEJ285I52
     K24J15E KC2024 05 12.44645314 47 17.621+23 24 48.71         19.22GVEJ285I52
     K24J15E KC2024 05 12.44703414 47 16.476+23 24 34.70         19.27GVEJ285I52
     K24J15E KC2024 05 12.47872214 46 14.984+23 11 50.68         19.33GVEJ285I52
     K24J15E KC2024 05 12.47930214 46 13.832+23 11 36.56         19.24GVEJ285I52
     K24J15E KC2024 05 12.47988514 46 12.727+23 11 22.45         18.88GVEJ285I52
     K24J15E KC2024 05 12.48046514 46 11.611+23 11 08.12         18.66GVEJ285I52
     K24J15E KC2024 05 12.84095 14 36 49.16 +21 01 43.7                VEJ285K88
     K24J15E KC2024 05 12.84266 14 36 46.29 +21 01 09.4          19.7 GVEJ285K88
     K24J15E KC2024 05 12.84436 14 36 43.46 +21 00 36.0          19.7 GVEJ285K88
     K24J15E KB2024 05 12.85230514 36 39.00 +20 58 07.0          19.4 GXEJ285958
     K24J15E KB2024 05 12.85617414 36 32.64 +20 56 53.0          19.0 GXEJ285958
     K24J15E 1C2024 05 12.85762 14 36 23.77 +20 55 45.0          20.0 VXEJ285033
     K24J15E 1C2024 05 12.85793 14 36 23.26 +20 55 38.9          20.2 VXEJ285033
     K24J15E 1C2024 05 12.85841 14 36 22.48 +20 55 29.6          20.5 VXEJ285033
     K24J15E 1C2024 05 12.85878 14 36 21.85 +20 55 22.2          20.4 VXEJ285033
     K24J15E KB2024 05 12.85996314 36 26.32 +20 55 38.1          19.4 GXEJ285958
     K24J15E KC2024 05 12.86521114 36 10.55 +20 53 21.0          19.2 GVEJ285K62
     K24J15E KC2024 05 12.86645914 36 08.49 +20 52 56.3          19.4 GVEJ285K62
     K24J15E KC2024 05 12.86773514 36 06.37 +20 52 31.3          19.5 GVEJ285K62
     K24J15E KC2024 05 12.89192 14 35 24.76 +20 44 50.7          18.7 GXEJ285G02
     K24J15E KC2024 05 12.89533414 35 21.09 +20 43 30.1          19.1 GVEJ285G34
     K24J15E KC2024 05 12.89695 14 35 16.50 +20 43 11.6          18.9 GXEJ285G02
     K24J15E KC2024 05 12.90237 14 35 07.61 +20 41 26.3          19.0 GXEJ285G02
     K24J15E KC2024 05 12.90390314 35 07.06 +20 40 42.6          19.2 GVEJ285G34
     K24J15E KC2024 05 12.90961614 34 57.74 +20 38 52.0          20.0 GVEJ285G34
     K24J15E KC2024 05 12.91533014 34 48.58 +20 37 00.6          19.3 GVEJ285G34

Observer details:
033 Karl Schwarzschild Observatory, Tautenburg.  Observers C. Heogner, F.
    Ludwig, M. Hartmann, B. Stecklum.  Measurer B. Stecklum.  1.34-m f/3
    Schmidt + CCD.
703 Catalina Sky Survey.  Observer G. J. Leonard.  Measurers B. Gray, D.
    Rankin, F. C. Shelly, T. Beuden, V. F. Carvajal, D. Fay, J. B. Fazekas, D.
    C. Fuls, A. R. Gibbs, A. D. Grauer, H. Groeller, J. K. Hogan, R. A.
    Kowalski, S. M. Larson, G. J. Leonard, R. L. Seaman, K. W. Wierzchos.
    0.68-m Schmidt + 10K CCD.
958 Observatoire de Dax.  Observer P. Dupouy.  0.50-m f/4.5 Reflector + CMO.
G02 KYSUCE Observatory, Kysucke Nove Mesto.  Observer M. Urbanik.  0.40-m
    f/6.8 Corrected Dall-Kirkham + CCD.
G34 Oberfrauendorf.  Observer T. Felber.  0.35-m f/6.3 Schmidt-Cassegrain
    +CCD.
I52 Steward Observatory, Mt. Lemmon Station.  Observer T. Beuden.  Measurers
    T. Beuden, V. F. Carvajal, D. Fay, J. B. Fazekas, D. C. Fuls, A. R. Gibbs,
    A. D. Grauer, H. Groeller, J. K. Hogan, R. A. Kowalski, S. M. Larson, G.
    J. Leonard, D. Rankin, R. L. Seaman, F. C. Shelly, K. W. Wierzchos.  1.0-m
    prime focus + CCD.
K62 Teplice Observatory.  Observer Z. Moravec.  0.60-m f/3.3 reflector + CMOS.
K88 GINOP-KHK, Piszkesteto.  Observer K. Sarneczky.  0.60-m Schmidt + CCD.

Orbital elements:
2024 JE15                                                Earth MOID = 0.0090 AU
Epoch 2024 Mar. 31.0 TT = JDT 2460400.5                 MPC                     
M  65.60222              (2000.0)            P               Q                  
n   1.30541882     Peri.  249.78338     +0.09276445     -0.99567949             
a   0.8291558      Node   194.89575     +0.91942567     +0.08725272             
e   0.3315002      Incl.    0.92174     +0.38216644     +0.03176960             
P   0.76           H   26.83          G   0.15           U   7                  
Residuals in seconds of arc
240511 703  0.4+  0.0     240512 I52  0.0   0.0     240512 958  0.1-  0.6-
240511 703  0.6-  0.2+    240512 I52  0.1+  0.2-    240512 K62  0.1+  0.5+
240511 703  0.2+  0.2-    240512 I52  0.1-  0.6-    240512 K62  0.1+  0.2+
240512 703  1.4+  0.7-    240512 K88  0.3+  0.8+    240512 K62  0.1-  0.2+
240512 703  0.2-  0.2+    240512 K88  0.2+  0.1+    240512 G02  0.4-  0.2+
240512 703  1.0-  1.1-    240512 K88  0.4+  0.2+    240512 G34  0.2+  0.0
240512 703  0.1+  0.9+    240512 958  0.5+  0.2-    240512 G02  0.4-  0.5-
240512 I52  0.0   0.3-    240512 958  0.9+  0.9+    240512 G02  0.6-  0.2+
240512 I52  0.1-  0.3-    240512 033  0.1-  0.3+    240512 G34  0.5-  0.5-
240512 I52  0.1+  0.1-    240512 033  0.0   0.2+    240512 G34  0.8-  0.1+
240512 I52  0.1+  0.1-    240512 033  0.1+  0.3+    240512 G34  0.8+  0.1-
240512 I52  0.7+  0.1+    240512 033  0.2-  0.1+

Ephemeris:
2024 JE15                a,e,i = 0.83, 0.33, 1                   q = 0.5543
Date    TT    R. A. (2000) Decl.     Delta      r    Elong.  Phase     V
2024 04 12    00 56 29.4 +07 01 27   0.1266  0.8768     6.6   172.5
...
2024 04 27    00 34 10.1 +10 31 28   0.05543 0.9568    25.6   152.9    29.5
...
2024 05 05    23 43 33.6 +21 48 45   0.02194 0.9929    44.0   135.1    24.8
...
2024 05 11    15 58 38.5 +35 24 58   0.01157 1.0168   125.6    53.9    19.2
2024 05 12    15 03 35.2 +26 35 27   0.01439 1.0205   135.2    44.2    19.4
2024 05 13    14 32 45.4 +20 14 21   0.01782 1.0241   139.7    39.7    19.7
...
2024 05 19    13 36 17.8 +05 55 42   0.04218 1.0441   139.5    39.0    21.6
...
2024 05 27    13 22 27.3 +01 01 08   0.07687 1.0663   132.1    44.8    23.1
...
2024 06 11    13 22 45.9 -02 46 56   0.1439  1.0940   119.8    53.7    24.8

A. U. Tomatic                (C) Copyright 2024 MPC           M.P.E.C. 2024-J285





More information about the Iaude mailing list